TimeCST,TemperatureF,Dew PointF,Humidity,Sea Level PressureIn,VisibilityMPH,Wind Direction,Wind SpeedMPH,Gust SpeedMPH,PrecipitationIn,Events,Conditions,WindDirDegrees,DateUTC
12:52 AM,21.9,16.0,78,29.87,10.0,WNW,5.8,-,N/A,,Clear,300,2012-01-27 06:52:00
1:52 AM,21.0,17.1,85,29.87,10.0,West,6.9,-,N/A,,Clear,280,2012-01-27 07:52:00
2:52 AM,24.1,19.0,81,29.88,10.0,SW,5.8,-,N/A,,Mostly Cloudy,230,2012-01-27 08:52:00
3:52 AM,21.9,19.0,89,29.88,10.0,Calm,Calm,-,N/A,,Scattered Clouds,0,2012-01-27 09:52:00
4:52 AM,21.9,18.0,85,29.88,10.0,South,5.8,-,N/A,,Scattered Clouds,170,2012-01-27 10:52:00
5:52 AM,19.9,17.1,89,29.87,10.0,SE,8.1,-,N/A,,Clear,140,2012-01-27 11:52:00
6:52 AM,23.0,19.9,88,29.88,10.0,South,8.1,-,N/A,,Overcast,180,2012-01-27 12:52:00
7:52 AM,25.0,21.9,88,29.87,10.0,South,10.4,-,N/A,,Overcast,180,2012-01-27 13:52:00
8:52 AM,27.0,23.0,85,29.88,10.0,SSW,11.5,-,N/A,,Overcast,210,2012-01-27 14:52:00
9:16 AM,30.2,26.6,86,29.84,1.8,SW,15.0,-,0.00,Snow,Light Snow,220,2012-01-27 15:16:00
9:25 AM,30.2,26.6,86,29.84,0.8,SW,17.3,-,0.00,Snow,Light Snow,220,2012-01-27 15:25:00
9:46 AM,30.2,28.4,93,29.83,1.2,SSW,17.3,24.2,0.00,Snow,Light Snow,210,2012-01-27 15:46:00
9:52 AM,30.9,28.9,92,29.89,3.0,SSW,18.4,-,0.00,Snow,Light Snow,200,2012-01-27 15:52:00
10:02 AM,32.0,30.2,93,29.84,1.8,SSW,16.1,-,0.00,Snow,Light Snow,200,2012-01-27 16:02:00
10:09 AM,32.0,30.2,93,29.84,1.0,SSW,17.3,-,0.00,Snow,Light Snow,200,2012-01-27 16:09:00
10:27 AM,32.0,30.2,93,29.84,1.0,South,18.4,-,0.00,Snow,Light Snow,190,2012-01-27 16:27:00
10:37 AM,33.8,30.2,87,29.84,1.8,SSW,18.4,26.5,0.00,Snow,Light Snow,200,2012-01-27 16:37:00
10:52 AM,33.1,30.9,92,29.88,2.5,South,20.7,-,0.00,Snow,Light Snow,190,2012-01-27 16:52:00
11:52 AM,34.0,30.9,89,29.86,10.0,South,19.6,-,0.00,,Overcast,190,2012-01-27 17:52:00
12:07 PM,33.8,30.2,87,29.80,10.0,SSW,19.6,-,N/A,,Overcast,200,2012-01-27 18:07:00
12:52 PM,34.0,30.9,89,29.85,9.0,SW,16.1,-,N/A,,Overcast,220,2012-01-27 18:52:00
1:05 PM,33.8,30.2,87,29.80,2.0,SW,23.0,33.4,0.00,Snow,Light Snow,230,2012-01-27 19:05:00
1:08 PM,33.8,30.2,87,29.79,1.0,SW,20.7,33.4,0.00,Snow,Light Snow,230,2012-01-27 19:08:00
1:11 PM,33.8,30.2,87,29.79,0.8,SW,23.0,33.4,0.00,Snow,Light Snow,230,2012-01-27 19:11:00
1:24 PM,33.8,30.2,87,29.79,2.5,SW,21.9,32.2,0.00,Snow,Light Snow,230,2012-01-27 19:24:00
1:29 PM,33.8,30.2,87,29.78,8.0,SW,21.9,32.2,0.00,Snow,Light Snow,230,2012-01-27 19:29:00
1:52 PM,34.0,30.0,85,29.83,10.0,WSW,20.7,28.8,0.00,,Overcast,240,2012-01-27 19:52:00
2:52 PM,35.1,30.0,82,29.84,10.0,West,23.0,29.9,N/A,,Overcast,280,2012-01-27 20:52:00
3:00 PM,35.6,30.2,81,29.80,10.0,WNW,21.9,29.9,N/A,,Overcast,290,2012-01-27 21:00:00
3:52 PM,33.1,26.1,75,29.88,10.0,NW,32.2,38.0,N/A,,Overcast,320,2012-01-27 21:52:00
4:52 PM,32.0,24.1,73,29.94,10.0,NW,26.5,39.1,N/A,,Overcast,320,2012-01-27 22:52:00
5:16 PM,30.2,23.0,75,29.90,10.0,NW,23.0,32.2,N/A,,Scattered Clouds,310,2012-01-27 23:16:00
5:52 PM,30.0,21.0,69,29.98,10.0,NW,20.7,-,N/A,,Clear,310,2012-01-27 23:52:00
6:52 PM,28.0,19.0,69,30.01,10.0,NW,23.0,-,N/A,,Clear,310,2012-01-28 00:52:00
7:52 PM,26.1,17.1,69,30.03,10.0,NW,19.6,-,N/A,,Clear,310,2012-01-28 01:52:00
8:52 PM,23.0,16.0,74,30.05,10.0,WNW,16.1,-,N/A,,Clear,300,2012-01-28 02:52:00
9:52 PM,21.9,15.1,75,30.06,10.0,WNW,12.7,-,N/A,,Clear,290,2012-01-28 03:52:00
10:52 PM,25.0,17.1,72,30.07,10.0,WNW,16.1,-,N/A,,Clear,300,2012-01-28 04:52:00
11:52 PM,23.0,16.0,74,30.07,10.0,WNW,15.0,-,N/A,,Partly Cloudy,300,2012-01-28 05:52:00